Location: Unspecified
(49.2170°N, 0.0000°E)
Time: 14:53:50
(UTC+00:00)

deb Explorer IX - All Passes

Search period start: 23 January 2021 00:00
Search period end: 02 February 2021 00:00
Orbit: 536 x 1104 km, 38.8° (Epoch: 23 January)

Date Brightness Start Highest point End Pass type
(mag) Time Alt. Az. Time Alt. Az. Time Alt. Az.
23 Jan - 16:49:39 10° S 16:52:00 12° SSE 16:54:15 10° SE daylight
23 Jan - 18:33:14 10° SW 18:38:01 24° SSE 18:42:16 10° ESE visible
23 Jan - 20:19:27 10° WSW 20:24:08 26° S 20:28:15 10° SE visible
23 Jan - 22:06:54 10° WSW 22:09:58 16° SSW 22:12:49 10° SSE night (unlit)
24 Jan - 16:25:34 10° S 16:28:17 13° SSE 16:30:52 10° SE daylight
24 Jan - 18:09:19 10° SW 18:14:19 25° SSE 18:18:46 10° ESE visible
24 Jan - 19:55:35 10° WSW 20:00:28 27° S 20:04:47 10° SE visible
24 Jan - 21:43:01 10° WSW 21:46:21 17° SSW 21:49:23 10° SSE visible
25 Jan - 16:01:32 10° S 16:04:32 13° SSE 16:07:25 10° SE daylight
25 Jan - 17:45:24 10° SW 17:50:36 25° SSE 17:55:15 10° ESE visible
25 Jan - 19:31:41 10° WSW 19:36:48 28° S 19:41:17 10° SE visible
25 Jan - 21:19:08 10° WSW 21:22:41 18° SSW 21:25:57 10° SSE visible
26 Jan - 15:37:31 10° S 15:40:47 14° SSE 15:43:54 10° ESE daylight
26 Jan - 17:21:28 10° SW 17:26:52 26° SSE 17:31:42 10° ESE visible
26 Jan - 19:07:46 10° WSW 19:13:06 29° S 19:17:46 10° SE visible
26 Jan - 20:55:13 10° WSW 20:59:02 18° SSW 21:02:30 10° SSE visible
27 Jan - 15:13:31 10° S 15:17:01 14° SSE 15:20:22 10° ESE daylight
27 Jan - 16:57:32 10° SW 17:03:06 27° SSE 17:08:08 10° ESE daylight
27 Jan - 18:43:51 10° WSW 18:49:23 30° S 18:54:15 10° SE visible
27 Jan - 20:31:18 10° WSW 20:35:22 19° SSW 20:39:01 10° SSE visible
28 Jan - 14:49:33 10° S 14:53:14 15° SSE 14:56:46 10° ESE daylight
28 Jan - 16:33:36 10° SW 16:39:20 28° SSE 16:44:33 10° ESE daylight
28 Jan - 18:19:56 10° WSW 18:25:39 31° S 18:30:41 10° SE visible
28 Jan - 20:07:22 10° WSW 20:11:40 20° SSW 20:15:32 10° SSE visible
29 Jan - 14:25:35 10° S 14:29:26 15° SSE 14:33:09 10° ESE daylight
29 Jan - 16:09:41 10° SW 16:15:33 28° SSE 16:20:56 10° ESE daylight
29 Jan - 17:56:01 10° WSW 18:01:54 32° S 18:07:07 10° SE visible
29 Jan - 19:43:25 10° WSW 19:47:57 21° SSW 19:52:01 10° SSE visible
30 Jan - 14:01:40 10° S 14:05:37 16° SSE 14:09:28 10° ESE daylight
30 Jan - 15:45:46 10° SW 15:51:45 29° SSE 15:57:17 10° ESE daylight
30 Jan - 17:32:05 10° WSW 17:38:07 33° S 17:43:32 10° ESE visible
30 Jan - 19:19:28 10° WSW 19:24:13 22° SSW 19:28:30 10° SSE visible
31 Jan - 13:37:45 10° S 13:41:48 16° SSE 13:45:45 10° ESE daylight
31 Jan - 15:21:51 10° SW 15:27:55 29° SSE 15:33:36 10° ESE daylight
31 Jan - 17:08:09 10° WSW 17:14:19 34° S 17:19:54 10° ESE daylight
31 Jan - 18:55:30 10° WSW 19:00:27 22° SSW 19:04:56 10° SSE visible
01 Feb - 13:13:53 10° S 13:17:58 16° SSE 13:22:00 10° ESE daylight
01 Feb - 14:57:57 10° SW 15:04:05 30° SSE 15:09:54 10° ESE daylight
01 Feb - 16:44:13 10° WSW 16:50:31 34° S 16:56:15 10° ESE daylight
01 Feb - 18:31:33 10° WSW 18:36:41 23° SSW 18:41:21 10° SSE visible
